Location: Hope
(40.9110°N, 74.9680°W)
Time: 05:56:58
(UTC-05:00)

N. Korean satellite - Pass Details

Date: 29 January 2019
Orbit: 456 x 510 km, 97.2° (Epoch: 20 February)

Event Time Altitude Azimuth Distance (km) Brightness Sun altitude
Rises 05:35:39 0° 24° (NNE) 2,591 10.5 -18.6°
Reaches altitude 10° 05:37:59 10° 36° (NE) 1,693 9.7 -18.1°
Maximum altitude 05:41:06 26° 95° (E) 979 8.9 -17.5°
Drops below altitude 10° 05:44:09 10° 155° (SSE) 1,653 9.7 -17.0°
Sets 05:46:25 0° 168° (SSE) 2,516 10.5 -16.5°
